Location: Newark
(40.7119°N, 74.0097°W)
Time: 04:04:19
(UTC+00:00)

Tiangong - Pass Details

Date: 30 June 2021
Orbit: 374 x 386 km, 41.5° (Epoch: 27 July)

Event Time Altitude Azimuth Distance (km) Brightness Sun altitude
Exits shadow 06:54:56 27° 101° (E) 756 2.7 -20.8°
Drops below altitude 10° 06:56:25 11° 101° (E) 1,345 4.0 -20.6°
Sets 06:58:35 0° 101° (E) 2,236 5.2 -20.4°
